User: anonymous   Login
Location: Unspecified
(51.0950°N, 12.9690°E)
Time: 23:17:25
(UTC+00:00)
Language:

LilacSat-2 - Orbit

View from above orbital plane
View from above orbital plane
View from above satellite
View from above satellite

Ground track
Ground track

The orbit data is extracted from the following two-line orbital elements,

1 40908U 15049K   24115.54824441  .00015071  00000-0  60274-3 0  9991
2 40908  97.5262 123.9119 0013093 169.7020 190.4489 15.25114828475313
Epoch (UTC): 24 April 2024 13:09:28
Eccentricity: 0.0013093
inclination: 97.5262°
perigee height: 481 km
apogee height: 499 km
right ascension of ascending node: 123.9119°
argument of perigee: 169.7020°
revolutions per day: 15.25114828
mean anomaly at epoch: 190.4489°
orbit number at epoch: 47531

The dashed part of the orbit path shows where the satellite is in the earth's shadow,  

DLR